Year,Month,Day,Hour,Minute,Value (Times are PST for temperature in C)
2013,09,01,00,00,15.00
2013,09,01,00,01,15.00
2013,09,01,00,02,15.00
2013,09,01,00,03,15.00
2013,09,01,00,04,15.00
2013,09,01,00,05,14.90
2013,09,01,00,06,14.90
2013,09,01,00,07,14.90
2013,09,01,00,08,14.90
2013,09,01,00,09,14.90
2013,09,01,00,10,14.90
2013,09,01,00,11,14.90
2013,09,01,00,12,14.90
2013,09,01,00,13,14.90
2013,09,01,00,14,14.90
2013,09,01,00,15,14.80
2013,09,01,00,16,14.80
2013,09,01,00,17,14.80
2013,09,01,00,18,14.80
2013,09,01,00,19,14.70
2013,09,01,00,20,14.70
2013,09,01,00,21,14.60
2013,09,01,00,22,14.60
2013,09,01,00,23,14.60
2013,09,01,00,24,14.60
2013,09,01,00,25,14.60
2013,09,01,00,26,14.60
2013,09,01,00,27,14.60
2013,09,01,00,28,14.50
2013,09,01,00,29,14.50
2013,09,01,00,30,14.50
2013,09,01,00,31,14.50
2013,09,01,00,32,14.50
2013,09,01,00,33,14.50
2013,09,01,00,34,14.50
2013,09,01,00,35,14.40
2013,09,01,00,36,14.40
2013,09,01,00,37,14.40
2013,09,01,00,38,14.30
2013,09,01,00,39,14.30
2013,09,01,00,40,14.30
2013,09,01,00,41,14.30
2013,09,01,00,42,14.20
2013,09,01,00,43,14.20
2013,09,01,00,44,14.20
2013,09,01,00,45,14.20
2013,09,01,00,46,14.20
2013,09,01,00,47,14.20
2013,09,01,00,48,14.20
2013,09,01,00,49,14.20
2013,09,01,00,50,14.10
2013,09,01,00,51,14.10
2013,09,01,00,52,14.10
2013,09,01,00,53,14.10
2013,09,01,00,54,14.10
2013,09,01,00,55,14.00
2013,09,01,00,56,14.00
2013,09,01,00,57,14.00
2013,09,01,00,58,14.00
2013,09,01,00,59,14.00
2013,09,01,01,00,14.00
2013,09,01,01,01,14.00
2013,09,01,01,02,14.00
2013,09,01,01,03,14.00
2013,09,01,01,04,14.00
2013,09,01,01,05,13.90
2013,09,01,01,06,13.90
2013,09,01,01,07,13.90
2013,09,01,01,08,13.90
2013,09,01,01,09,13.90
2013,09,01,01,10,13.90
2013,09,01,01,11,13.90
2013,09,01,01,12,13.90
2013,09,01,01,13,13.90
2013,09,01,01,14,13.90
2013,09,01,01,15,13.90
2013,09,01,01,16,13.90
2013,09,01,01,17,13.90
2013,09,01,01,18,13.90
2013,09,01,01,19,13.90
2013,09,01,01,20,13.80
2013,09,01,01,21,13.80
2013,09,01,01,22,13.80
2013,09,01,01,23,13.80
2013,09,01,01,24,13.80
2013,09,01,01,25,13.80
2013,09,01,01,26,13.80
2013,09,01,01,27,13.80
2013,09,01,01,28,13.80
2013,09,01,01,29,13.80
2013,09,01,01,30,13.80
2013,09,01,01,31,13.80
2013,09,01,01,32,13.70
2013,09,01,01,33,13.80
2013,09,01,01,34,13.80
2013,09,01,01,35,13.80
2013,09,01,01,36,13.80
2013,09,01,01,37,13.80
2013,09,01,01,38,13.80
2013,09,01,01,39,13.80
2013,09,01,01,40,13.80
2013,09,01,01,41,13.80
2013,09,01,01,42,13.80
2013,09,01,01,43,13.80
2013,09,01,01,44,13.80
2013,09,01,01,45,13.80
2013,09,01,01,46,13.80
2013,09,01,01,47,13.80
2013,09,01,01,48,13.80
2013,09,01,01,49,13.80
2013,09,01,01,50,13.80
2013,09,01,01,51,13.80
2013,09,01,01,52,13.80
2013,09,01,01,53,13.80
2013,09,01,01,54,13.80
2013,09,01,01,55,13.70
2013,09,01,01,56,13.70
2013,09,01,01,57,13.70
2013,09,01,01,58,13.70
2013,09,01,01,59,13.70
2013,09,01,02,00,13.70
2013,09,01,02,01,13.70
2013,09,01,02,02,13.70
2013,09,01,02,03,13.70
2013,09,01,02,04,13.60
2013,09,01,02,05,13.60
2013,09,01,02,06,13.60
2013,09,01,02,07,13.60
2013,09,01,02,08,13.60
2013,09,01,02,09,13.50
2013,09,01,02,10,13.50
2013,09,01,02,11,13.50
2013,09,01,02,12,13.40
2013,09,01,02,13,13.40
2013,09,01,02,14,13.40
2013,09,01,02,15,13.40
2013,09,01,02,16,13.40
2013,09,01,02,17,13.30
2013,09,01,02,18,13.30
2013,09,01,02,19,13.30
2013,09,01,02,20,13.30
2013,09,01,02,21,13.30
2013,09,01,02,22,13.30
2013,09,01,02,23,13.30
2013,09,01,02,24,13.30
2013,09,01,02,25,13.30
2013,09,01,02,26,13.30
2013,09,01,02,27,13.30
2013,09,01,02,28,13.30
2013,09,01,02,29,13.30
2013,09,01,02,30,13.30
2013,09,01,02,31,13.30
2013,09,01,02,32,13.30
2013,09,01,02,33,13.30
2013,09,01,02,34,13.30
2013,09,01,02,35,13.30
2013,09,01,02,36,13.30
2013,09,01,02,37,13.30
2013,09,01,02,38,13.30
2013,09,01,02,39,13.30
2013,09,01,02,40,13.30
2013,09,01,02,41,13.30
2013,09,01,02,42,13.30
2013,09,01,02,43,13.30
2013,09,01,02,44,13.30
2013,09,01,02,45,13.30
2013,09,01,02,46,13.30
2013,09,01,02,47,13.30
2013,09,01,02,48,13.30
2013,09,01,02,49,13.30
2013,09,01,02,50,13.30
2013,09,01,02,51,13.30
2013,09,01,02,52,13.30
2013,09,01,02,53,13.20
2013,09,01,02,54,13.20
2013,09,01,02,55,13.20
2013,09,01,02,56,13.20
2013,09,01,02,57,13.20
2013,09,01,02,58,13.20
2013,09,01,02,59,13.20
2013,09,01,03,00,13.20
2013,09,01,03,01,13.20
2013,09,01,03,02,13.20
2013,09,01,03,03,13.20
2013,09,01,03,04,13.30
2013,09,01,03,05,13.30
2013,09,01,03,06,13.30
2013,09,01,03,07,13.30
2013,09,01,03,08,13.30
2013,09,01,03,09,13.30
2013,09,01,03,10,13.20
2013,09,01,03,11,13.30
2013,09,01,03,12,13.30
2013,09,01,03,13,13.30
2013,09,01,03,14,13.20
2013,09,01,03,15,13.20
2013,09,01,03,16,13.20
2013,09,01,03,17,13.20
2013,09,01,03,18,13.10
2013,09,01,03,19,13.10
2013,09,01,03,20,13.00
2013,09,01,03,21,13.00
2013,09,01,03,22,12.90
2013,09,01,03,23,12.80
2013,09,01,03,24,12.80
2013,09,01,03,25,12.80
2013,09,01,03,26,12.80
2013,09,01,03,27,12.80
2013,09,01,03,28,12.80
2013,09,01,03,29,12.80
2013,09,01,03,30,12.80
2013,09,01,03,31,12.80
2013,09,01,03,32,12.80
2013,09,01,03,33,12.90
2013,09,01,03,34,12.90
2013,09,01,03,35,12.90
2013,09,01,03,36,12.90
2013,09,01,03,37,12.80
2013,09,01,03,38,12.80
2013,09,01,03,39,12.80
2013,09,01,03,40,12.80
2013,09,01,03,41,12.80
2013,09,01,03,42,12.80
2013,09,01,03,43,12.80
2013,09,01,03,44,12.80
2013,09,01,03,45,12.80
2013,09,01,03,46,12.80
2013,09,01,03,47,12.80
2013,09,01,03,48,12.80
2013,09,01,03,49,12.80
2013,09,01,03,50,12.80
2013,09,01,03,51,12.80
2013,09,01,03,52,12.80
2013,09,01,03,53,12.80
2013,09,01,03,54,12.80
2013,09,01,03,55,12.90
2013,09,01,03,56,12.90
2013,09,01,03,57,12.90
2013,09,01,03,58,12.90
2013,09,01,03,59,12.90
2013,09,01,04,00,12.90
2013,09,01,04,01,12.90
2013,09,01,04,02,12.90
2013,09,01,04,03,12.90
2013,09,01,04,04,12.90
2013,09,01,04,05,12.90
2013,09,01,04,06,12.90
2013,09,01,04,07,12.90
2013,09,01,04,08,12.90
2013,09,01,04,09,12.80
2013,09,01,04,10,12.80
2013,09,01,04,11,12.80
2013,09,01,04,12,12.80
2013,09,01,04,13,12.70
2013,09,01,04,14,12.70
2013,09,01,04,15,12.70
2013,09,01,04,16,12.70
2013,09,01,04,17,12.70
2013,09,01,04,18,12.80
2013,09,01,04,19,12.80
2013,09,01,04,20,12.80
2013,09,01,04,21,12.80
2013,09,01,04,22,12.80
2013,09,01,04,23,12.70
2013,09,01,04,24,12.70
2013,09,01,04,25,12.60
2013,09,01,04,26,12.60
2013,09,01,04,27,12.50
2013,09,01,04,28,12.50
2013,09,01,04,29,12.40
2013,09,01,04,30,12.40
2013,09,01,04,31,12.40
2013,09,01,04,32,12.30
2013,09,01,04,33,12.30
2013,09,01,04,34,12.30
2013,09,01,04,35,12.40
2013,09,01,04,36,12.40
2013,09,01,04,37,12.50
2013,09,01,04,38,12.50
2013,09,01,04,39,12.50
2013,09,01,04,40,12.50
2013,09,01,04,41,12.60
2013,09,01,04,42,12.60
2013,09,01,04,43,12.60
2013,09,01,04,44,12.60
2013,09,01,04,45,12.70
2013,09,01,04,46,12.80
2013,09,01,04,47,12.80
2013,09,01,04,48,12.80
2013,09,01,04,49,12.80
2013,09,01,04,50,12.80
2013,09,01,04,51,12.70
2013,09,01,04,52,12.70
2013,09,01,04,53,12.70
2013,09,01,04,54,12.60
2013,09,01,04,55,12.60
2013,09,01,04,56,12.60
2013,09,01,04,57,12.60
2013,09,01,04,58,12.60
2013,09,01,04,59,12.60
2013,09,01,05,00,12.60
2013,09,01,05,01,12.50
2013,09,01,05,02,12.50
2013,09,01,05,03,12.60
2013,09,01,05,04,12.60
2013,09,01,05,05,12.60
2013,09,01,05,06,12.60
2013,09,01,05,07,12.60
2013,09,01,05,08,12.60
2013,09,01,05,09,12.60
2013,09,01,05,10,12.60
2013,09,01,05,11,12.60
2013,09,01,05,12,12.60
2013,09,01,05,13,12.60
2013,09,01,05,14,12.60
2013,09,01,05,15,12.60
2013,09,01,05,16,12.60
2013,09,01,05,17,12.60
2013,09,01,05,18,12.60
2013,09,01,05,19,12.50
2013,09,01,05,20,12.50
2013,09,01,05,21,12.60
2013,09,01,05,22,12.60
2013,09,01,05,23,12.60
2013,09,01,05,24,12.60
2013,09,01,05,25,12.60
2013,09,01,05,26,12.50
2013,09,01,05,27,12.50
2013,09,01,05,28,12.50
2013,09,01,05,29,12.40
2013,09,01,05,30,12.40
2013,09,01,05,31,12.40
2013,09,01,05,32,12.40
2013,09,01,05,33,12.40
2013,09,01,05,34,12.40
2013,09,01,05,35,12.40
2013,09,01,05,36,12.40
2013,09,01,05,37,12.50
2013,09,01,05,38,12.50
2013,09,01,05,39,12.50
2013,09,01,05,40,12.50
2013,09,01,05,41,12.50
2013,09,01,05,42,12.40
2013,09,01,05,43,12.40
2013,09,01,05,44,12.30
2013,09,01,05,45,12.30
2013,09,01,05,46,12.30
2013,09,01,05,47,12.20
2013,09,01,05,48,12.20
2013,09,01,05,49,12.20
2013,09,01,05,50,12.30
2013,09,01,05,51,12.30
2013,09,01,05,52,12.30
2013,09,01,05,53,12.30
2013,09,01,05,54,12.30
2013,09,01,05,55,12.30
2013,09,01,05,56,12.20
2013,09,01,05,57,12.20
2013,09,01,05,58,12.20
2013,09,01,05,59,12.20
2013,09,01,06,00,12.20
2013,09,01,06,01,12.20
2013,09,01,06,02,12.10
2013,09,01,06,03,12.10
2013,09,01,06,04,12.10
2013,09,01,06,05,12.10
2013,09,01,06,06,12.10
2013,09,01,06,07,12.10
2013,09,01,06,08,12.10
2013,09,01,06,09,12.10
2013,09,01,06,10,12.10
2013,09,01,06,11,12.10
2013,09,01,06,12,12.10
2013,09,01,06,13,12.20
2013,09,01,06,14,12.20
2013,09,01,06,15,12.20
2013,09,01,06,16,12.20
2013,09,01,06,17,12.20
2013,09,01,06,18,12.30
2013,09,01,06,19,12.30
2013,09,01,06,20,12.30
2013,09,01,06,21,12.20
2013,09,01,06,22,12.20
2013,09,01,06,23,12.20
2013,09,01,06,24,12.20
2013,09,01,06,25,12.20
2013,09,01,06,26,12.30
2013,09,01,06,27,12.30
2013,09,01,06,28,12.30
2013,09,01,06,29,12.30
2013,09,01,06,30,12.30
2013,09,01,06,31,12.30
2013,09,01,06,32,12.30
2013,09,01,06,33,12.30
2013,09,01,06,34,12.30
2013,09,01,06,35,12.30
2013,09,01,06,36,12.30
2013,09,01,06,37,12.30
2013,09,01,06,38,12.30
2013,09,01,06,39,12.30
2013,09,01,06,40,12.30
2013,09,01,06,41,12.30
2013,09,01,06,42,12.30
2013,09,01,06,43,12.30
2013,09,01,06,44,12.30
2013,09,01,06,45,12.30
2013,09,01,06,46,12.30
2013,09,01,06,47,12.30
2013,09,01,06,48,12.30
2013,09,01,06,49,12.30
2013,09,01,06,50,12.30
2013,09,01,06,51,12.30
2013,09,01,06,52,12.30
2013,09,01,06,53,12.30
2013,09,01,06,54,12.30
2013,09,01,06,55,12.30
2013,09,01,06,56,12.40
2013,09,01,06,57,12.30
2013,09,01,06,58,12.40
2013,09,01,06,59,12.40
2013,09,01,07,00,12.40
2013,09,01,07,01,12.40
2013,09,01,07,02,12.40
2013,09,01,07,03,12.50
2013,09,01,07,04,12.50
2013,09,01,07,05,12.50
2013,09,01,07,06,12.50
2013,09,01,07,07,12.50
2013,09,01,07,08,12.50
2013,09,01,07,09,12.50
2013,09,01,07,10,12.60
2013,09,01,07,11,12.60
2013,09,01,07,12,12.60
2013,09,01,07,13,12.60
2013,09,01,07,14,12.60
2013,09,01,07,15,12.60
2013,09,01,07,16,12.60
2013,09,01,07,17,12.60
2013,09,01,07,18,12.60
2013,09,01,07,19,12.60
2013,09,01,07,20,12.60
2013,09,01,07,21,12.60
2013,09,01,07,22,12.50
2013,09,01,07,23,12.50
2013,09,01,07,24,12.50
2013,09,01,07,25,12.60
2013,09,01,07,26,12.60
2013,09,01,07,27,12.70
2013,09,01,07,28,12.80
2013,09,01,07,29,12.80
2013,09,01,07,30,12.80
2013,09,01,07,31,12.90
2013,09,01,07,32,12.90
2013,09,01,07,33,12.90
2013,09,01,07,34,12.90
2013,09,01,07,35,12.90
2013,09,01,07,36,12.90
2013,09,01,07,37,12.90
2013,09,01,07,38,12.90
2013,09,01,07,39,12.90
2013,09,01,07,40,12.90
2013,09,01,07,41,13.00
2013,09,01,07,42,13.10
2013,09,01,07,43,13.20
2013,09,01,07,44,13.20
2013,09,01,07,45,13.30
2013,09,01,07,46,13.30
2013,09,01,07,47,13.30
2013,09,01,07,48,13.30
2013,09,01,07,49,13.40
2013,09,01,07,50,13.40
2013,09,01,07,51,13.50
2013,09,01,07,52,13.60
2013,09,01,07,53,13.60
2013,09,01,07,54,13.70
2013,09,01,07,55,13.70
2013,09,01,07,56,13.70
2013,09,01,07,57,13.70
2013,09,01,07,58,13.70
2013,09,01,07,59,13.80
2013,09,01,08,00,13.80
2013,09,01,08,01,13.90
2013,09,01,08,02,14.00
2013,09,01,08,03,14.10
2013,09,01,08,04,14.10
2013,09,01,08,05,14.20
2013,09,01,08,06,14.20
2013,09,01,08,07,14.30
2013,09,01,08,08,14.50
2013,09,01,08,09,14.60
2013,09,01,08,10,14.70
2013,09,01,08,11,14.80
2013,09,01,08,12,14.90
2013,09,01,08,13,14.90
2013,09,01,08,14,14.90
2013,09,01,08,15,14.90
2013,09,01,08,16,14.90
2013,09,01,08,17,14.90
2013,09,01,08,18,15.00
2013,09,01,08,19,15.00
2013,09,01,08,20,15.00
2013,09,01,08,21,15.00
2013,09,01,08,22,15.20
2013,09,01,08,23,15.30
2013,09,01,08,24,15.30
2013,09,01,08,25,15.30
2013,09,01,08,26,15.30
2013,09,01,08,27,15.30
2013,09,01,08,28,15.30
2013,09,01,08,29,15.30
2013,09,01,08,30,15.30
2013,09,01,08,31,15.30
2013,09,01,08,32,15.20
2013,09,01,08,33,15.30
2013,09,01,08,34,15.30
2013,09,01,08,35,15.30
2013,09,01,08,36,15.30
2013,09,01,08,37,15.30
2013,09,01,08,38,15.40
2013,09,01,08,39,15.50
2013,09,01,08,40,15.60
2013,09,01,08,41,15.60
2013,09,01,08,42,15.70
2013,09,01,08,43,15.80
2013,09,01,08,44,15.80
2013,09,01,08,45,15.90
2013,09,01,08,46,15.90
2013,09,01,08,47,16.00
2013,09,01,08,48,16.00
2013,09,01,08,49,16.00
2013,09,01,08,50,16.00
2013,09,01,08,51,16.00
2013,09,01,08,52,16.00
2013,09,01,08,53,16.00
2013,09,01,08,54,16.10
2013,09,01,08,55,16.10
2013,09,01,08,56,16.10
2013,09,01,08,57,16.20
2013,09,01,08,58,16.20
2013,09,01,08,59,16.20
2013,09,01,09,00,16.30
2013,09,01,09,01,16.30
2013,09,01,09,02,16.40
2013,09,01,09,03,16.40
2013,09,01,09,04,16.40
2013,09,01,09,05,16.50
2013,09,01,09,06,16.50
2013,09,01,09,07,16.50
2013,09,01,09,08,16.60
2013,09,01,09,09,16.60
2013,09,01,09,10,16.60
2013,09,01,09,11,16.60
2013,09,01,09,12,16.70
2013,09,01,09,13,16.70
2013,09,01,09,14,16.80
2013,09,01,09,15,16.80
2013,09,01,09,16,16.90
2013,09,01,09,17,17.00
2013,09,01,09,18,17.00
2013,09,01,09,19,17.10
2013,09,01,09,20,17.20
2013,09,01,09,21,17.30
2013,09,01,09,22,17.40
2013,09,01,09,23,17.40
2013,09,01,09,24,17.50
2013,09,01,09,25,17.60
2013,09,01,09,26,17.70
2013,09,01,09,27,17.80
2013,09,01,09,28,17.80
2013,09,01,09,29,17.90
2013,09,01,09,30,17.90
2013,09,01,09,31,17.90
2013,09,01,09,32,18.00
2013,09,01,09,33,18.00
2013,09,01,09,34,18.00
2013,09,01,09,35,18.10
2013,09,01,09,36,18.10
2013,09,01,09,37,18.20
2013,09,01,09,38,18.20
2013,09,01,09,39,18.30
2013,09,01,09,40,18.30
2013,09,01,09,41,18.40
2013,09,01,09,42,18.40
2013,09,01,09,43,18.40
2013,09,01,09,44,18.50
2013,09,01,09,45,18.60
2013,09,01,09,46,18.60
2013,09,01,09,47,18.70
2013,09,01,09,48,18.80
2013,09,01,09,49,18.90
2013,09,01,09,50,19.00
2013,09,01,09,51,19.10
2013,09,01,09,52,19.10
2013,09,01,09,53,19.10
2013,09,01,09,54,19.10
2013,09,01,09,55,19.10
2013,09,01,09,56,19.10
2013,09,01,09,57,19.10
2013,09,01,09,58,19.10
2013,09,01,09,59,19.10
2013,09,01,10,00,19.20
2013,09,01,10,01,19.20
2013,09,01,10,02,19.20
2013,09,01,10,03,19.20
2013,09,01,10,04,19.20
2013,09,01,10,05,19.20
2013,09,01,10,06,19.10
2013,09,01,10,07,19.10
2013,09,01,10,08,19.20
2013,09,01,10,09,19.10
2013,09,01,10,10,19.10
2013,09,01,10,11,19.10
2013,09,01,10,12,19.00
2013,09,01,10,13,19.00
2013,09,01,10,14,19.00
2013,09,01,10,15,19.10
2013,09,01,10,16,19.10
2013,09,01,10,17,19.10
2013,09,01,10,18,19.10
2013,09,01,10,19,19.10
2013,09,01,10,20,19.10
2013,09,01,10,21,19.00
2013,09,01,10,22,19.00
2013,09,01,10,23,18.90
2013,09,01,10,24,18.90
2013,09,01,10,25,18.90
2013,09,01,10,26,18.80
2013,09,01,10,27,18.80
2013,09,01,10,28,18.70
2013,09,01,10,29,18.70
2013,09,01,10,30,18.70
2013,09,01,10,31,18.70
2013,09,01,10,32,18.70
2013,09,01,10,33,18.60
2013,09,01,10,34,18.60
2013,09,01,10,35,18.60
2013,09,01,10,36,18.70
2013,09,01,10,37,18.70
2013,09,01,10,38,18.80
2013,09,01,10,39,18.90
2013,09,01,10,40,18.90
2013,09,01,10,41,19.00
2013,09,01,10,42,19.00
2013,09,01,10,43,19.10
2013,09,01,10,44,19.10
2013,09,01,10,45,19.20
2013,09,01,10,46,19.30
2013,09,01,10,47,19.40
2013,09,01,10,48,19.50
2013,09,01,10,49,19.70
2013,09,01,10,50,19.80
2013,09,01,10,51,19.90
2013,09,01,10,52,20.00
2013,09,01,10,53,20.10
2013,09,01,10,54,20.20
2013,09,01,10,55,20.30
2013,09,01,10,56,20.40
2013,09,01,10,57,20.40
2013,09,01,10,58,20.40
2013,09,01,10,59,20.40
2013,09,01,11,00,20.40
2013,09,01,11,01,20.40
2013,09,01,11,02,20.40
2013,09,01,11,03,20.50
2013,09,01,11,04,20.50
2013,09,01,11,05,20.50
2013,09,01,11,06,20.60
2013,09,01,11,07,20.60
2013,09,01,11,08,20.60
2013,09,01,11,09,20.70
2013,09,01,11,10,20.70
2013,09,01,11,11,20.80
2013,09,01,11,12,20.80
2013,09,01,11,13,20.80
2013,09,01,11,14,20.80
2013,09,01,11,15,20.80
2013,09,01,11,16,20.80
2013,09,01,11,17,20.80
2013,09,01,11,18,20.90
2013,09,01,11,19,20.80
2013,09,01,11,20,20.70
2013,09,01,11,21,20.70
2013,09,01,11,22,20.60
2013,09,01,11,23,20.50
2013,09,01,11,24,20.50
2013,09,01,11,25,20.40
2013,09,01,11,26,20.40
2013,09,01,11,27,20.40
2013,09,01,11,28,20.30
2013,09,01,11,29,20.20
2013,09,01,11,30,20.20
2013,09,01,11,31,20.20
2013,09,01,11,32,20.10
2013,09,01,11,33,20.10
2013,09,01,11,34,20.00
2013,09,01,11,35,20.00
2013,09,01,11,36,20.10
2013,09,01,11,37,20.20
2013,09,01,11,38,20.30
2013,09,01,11,39,20.30
2013,09,01,11,40,20.30
2013,09,01,11,41,20.30
2013,09,01,11,42,20.30
2013,09,01,11,43,20.30
2013,09,01,11,44,20.30
2013,09,01,11,45,20.40
2013,09,01,11,46,20.40
2013,09,01,11,47,20.50
2013,09,01,11,48,20.60
2013,09,01,11,49,20.60
2013,09,01,11,50,20.70
2013,09,01,11,51,20.60
2013,09,01,11,52,20.60
2013,09,01,11,53,20.60
2013,09,01,11,54,20.60
2013,09,01,11,55,20.60
2013,09,01,11,56,20.60
2013,09,01,11,57,20.70
2013,09,01,11,58,20.70
2013,09,01,11,59,20.80
2013,09,01,12,00,20.80
2013,09,01,12,01,20.80
2013,09,01,12,02,20.80
2013,09,01,12,03,20.80
2013,09,01,12,04,20.80
2013,09,01,12,05,20.80
2013,09,01,12,06,20.80
2013,09,01,12,07,20.90
2013,09,01,12,08,20.90
2013,09,01,12,09,20.90
2013,09,01,12,10,20.90
2013,09,01,12,11,20.90
2013,09,01,12,12,20.90
2013,09,01,12,13,21.00
2013,09,01,12,14,21.10
2013,09,01,12,15,21.20
2013,09,01,12,16,21.30
2013,09,01,12,17,21.40
2013,09,01,12,18,21.50
2013,09,01,12,19,21.60
2013,09,01,12,20,21.60
2013,09,01,12,21,21.60
2013,09,01,12,22,21.60
2013,09,01,12,23,21.70
2013,09,01,12,24,21.70
2013,09,01,12,25,21.70
2013,09,01,12,26,21.80
2013,09,01,12,27,21.80
2013,09,01,12,28,21.90
2013,09,01,12,29,21.90
2013,09,01,12,30,21.90
2013,09,01,12,31,21.90
2013,09,01,12,32,21.90
2013,09,01,12,33,21.90
2013,09,01,12,34,21.90
2013,09,01,12,35,21.90
2013,09,01,12,36,22.00
2013,09,01,12,37,22.10
2013,09,01,12,38,22.10
2013,09,01,12,39,22.10
2013,09,01,12,40,22.10
2013,09,01,12,41,22.20
2013,09,01,12,42,22.20
2013,09,01,12,43,22.30
2013,09,01,12,44,22.30
2013,09,01,12,45,22.30
2013,09,01,12,46,22.30
2013,09,01,12,47,22.20
2013,09,01,12,48,22.20
2013,09,01,12,49,22.10
2013,09,01,12,50,22.00
2013,09,01,12,51,22.00
2013,09,01,12,52,21.90
2013,09,01,12,53,21.90
2013,09,01,12,54,21.90
2013,09,01,12,55,21.80
2013,09,01,12,56,21.80
2013,09,01,12,57,21.80
2013,09,01,12,58,21.60
2013,09,01,12,59,21.60
2013,09,01,13,00,21.60
2013,09,01,13,01,21.50
2013,09,01,13,02,21.50
2013,09,01,13,03,21.60
2013,09,01,13,04,21.60
2013,09,01,13,05,21.60
2013,09,01,13,06,21.60
2013,09,01,13,07,21.60
2013,09,01,13,08,21.60
2013,09,01,13,09,21.60
2013,09,01,13,10,21.60
2013,09,01,13,11,21.70
2013,09,01,13,12,21.80
2013,09,01,13,13,21.80
2013,09,01,13,14,21.90
2013,09,01,13,15,21.90
2013,09,01,13,16,21.90
2013,09,01,13,17,22.00
2013,09,01,13,18,22.00
2013,09,01,13,19,22.10
2013,09,01,13,20,22.20
2013,09,01,13,21,22.20
2013,09,01,13,22,22.30
2013,09,01,13,23,22.40
2013,09,01,13,24,22.50
2013,09,01,13,25,22.60
2013,09,01,13,26,22.60
2013,09,01,13,27,22.60
2013,09,01,13,28,22.60
2013,09,01,13,29,22.60
2013,09,01,13,30,22.60
2013,09,01,13,31,22.60
2013,09,01,13,32,22.60
2013,09,01,13,33,22.60
2013,09,01,13,34,22.60
2013,09,01,13,35,22.60
2013,09,01,13,36,22.60
2013,09,01,13,37,22.50
2013,09,01,13,38,22.50
2013,09,01,13,39,22.50
2013,09,01,13,40,22.60
2013,09,01,13,41,22.60
2013,09,01,13,42,22.70
2013,09,01,13,43,22.80
2013,09,01,13,44,22.80
2013,09,01,13,45,22.80
2013,09,01,13,46,22.80
2013,09,01,13,47,22.80
2013,09,01,13,48,22.80
2013,09,01,13,49,22.80
2013,09,01,13,50,22.90
2013,09,01,13,51,22.90
2013,09,01,13,52,22.90
2013,09,01,13,53,22.90
2013,09,01,13,54,22.80
2013,09,01,13,55,22.80
2013,09,01,13,56,22.80
2013,09,01,13,57,22.80
2013,09,01,13,58,22.80
2013,09,01,13,59,22.90
2013,09,01,14,00,22.90
2013,09,01,14,01,23.00
2013,09,01,14,02,23.10
2013,09,01,14,03,23.00
2013,09,01,14,04,23.00
2013,09,01,14,05,23.10
2013,09,01,14,06,23.10
2013,09,01,14,07,23.10
2013,09,01,14,08,23.10
2013,09,01,14,09,23.10
2013,09,01,14,10,23.10
2013,09,01,14,11,23.00
2013,09,01,14,12,23.00
2013,09,01,14,13,23.00
2013,09,01,14,14,23.00
2013,09,01,14,15,23.10
2013,09,01,14,16,23.10
2013,09,01,14,17,23.10
2013,09,01,14,18,23.20
2013,09,01,14,19,23.20
2013,09,01,14,20,23.30
2013,09,01,14,21,23.30
2013,09,01,14,22,23.30
2013,09,01,14,23,23.40
2013,09,01,14,24,23.50
2013,09,01,14,25,23.60
2013,09,01,14,26,23.70
2013,09,01,14,27,23.80
2013,09,01,14,28,23.80
2013,09,01,14,29,23.90
2013,09,01,14,30,24.00
2013,09,01,14,31,24.00
2013,09,01,14,32,24.00
2013,09,01,14,33,23.90
2013,09,01,14,34,23.90
2013,09,01,14,35,23.80
2013,09,01,14,36,23.80
2013,09,01,14,37,23.80
2013,09,01,14,38,23.70
2013,09,01,14,39,23.60
2013,09,01,14,40,23.50
2013,09,01,14,41,23.50
2013,09,01,14,42,23.40
2013,09,01,14,43,23.40
2013,09,01,14,44,23.40
2013,09,01,14,45,23.40
2013,09,01,14,46,23.40
2013,09,01,14,47,23.50
2013,09,01,14,48,23.40
2013,09,01,14,49,23.40
2013,09,01,14,50,23.40
2013,09,01,14,51,23.40
2013,09,01,14,52,23.30
2013,09,01,14,53,23.30
2013,09,01,14,54,23.30
2013,09,01,14,55,23.30
2013,09,01,14,56,23.30
2013,09,01,14,57,23.40
2013,09,01,14,58,23.40
2013,09,01,14,59,23.50
2013,09,01,15,00,23.60
2013,09,01,15,01,23.70
2013,09,01,15,02,23.70
2013,09,01,15,03,23.70
2013,09,01,15,04,23.60
2013,09,01,15,05,23.60
2013,09,01,15,06,23.60
2013,09,01,15,07,23.50
2013,09,01,15,08,23.50
2013,09,01,15,09,23.50
2013,09,01,15,10,23.60
2013,09,01,15,11,23.60
2013,09,01,15,12,23.70
2013,09,01,15,13,23.70
2013,09,01,15,14,23.70
2013,09,01,15,15,23.80
2013,09,01,15,16,23.90
2013,09,01,15,17,23.90
2013,09,01,15,18,23.90
2013,09,01,15,19,23.90
2013,09,01,15,20,23.80
2013,09,01,15,21,23.90
2013,09,01,15,22,23.80
2013,09,01,15,23,23.80
2013,09,01,15,24,23.70
2013,09,01,15,25,23.60
2013,09,01,15,26,23.50
2013,09,01,15,27,23.50
2013,09,01,15,28,23.60
2013,09,01,15,29,23.60
2013,09,01,15,30,23.60
2013,09,01,15,31,23.50
2013,09,01,15,32,23.50
2013,09,01,15,33,23.50
2013,09,01,15,34,23.50
2013,09,01,15,35,23.50
2013,09,01,15,36,23.50
2013,09,01,15,37,23.50
2013,09,01,15,38,23.60
2013,09,01,15,39,23.60
2013,09,01,15,40,23.60
2013,09,01,15,41,23.60
2013,09,01,15,42,23.60
2013,09,01,15,43,23.60
2013,09,01,15,44,23.70
2013,09,01,15,45,23.70
2013,09,01,15,46,23.70
2013,09,01,15,47,23.70
2013,09,01,15,48,23.70
2013,09,01,15,49,23.70
2013,09,01,15,50,23.60
2013,09,01,15,51,23.70
2013,09,01,15,52,23.60
2013,09,01,15,53,23.60
2013,09,01,15,54,23.60
2013,09,01,15,55,23.70
2013,09,01,15,56,23.70
2013,09,01,15,57,23.80
2013,09,01,15,58,23.80
2013,09,01,15,59,23.90
2013,09,01,16,00,23.90
2013,09,01,16,01,24.00
2013,09,01,16,02,24.10
2013,09,01,16,03,24.10
2013,09,01,16,04,24.10
2013,09,01,16,05,24.00
2013,09,01,16,06,24.10
2013,09,01,16,07,24.10
2013,09,01,16,08,24.20
2013,09,01,16,09,24.30
2013,09,01,16,10,24.40
2013,09,01,16,11,24.40
2013,09,01,16,12,24.40
2013,09,01,16,13,24.50
2013,09,01,16,14,24.60
2013,09,01,16,15,24.60
2013,09,01,16,16,24.70
2013,09,01,16,17,24.70
2013,09,01,16,18,24.70
2013,09,01,16,19,24.70
2013,09,01,16,20,24.70
2013,09,01,16,21,24.60
2013,09,01,16,22,24.60
2013,09,01,16,23,24.50
2013,09,01,16,24,24.40
2013,09,01,16,25,24.40
2013,09,01,16,26,24.40
2013,09,01,16,27,24.40
2013,09,01,16,28,24.40
2013,09,01,16,29,24.30
2013,09,01,16,30,24.40
2013,09,01,16,31,24.50
2013,09,01,16,32,24.50
2013,09,01,16,33,24.50
2013,09,01,16,34,24.50
2013,09,01,16,35,24.50
2013,09,01,16,36,24.40
2013,09,01,16,37,24.40
2013,09,01,16,38,24.30
2013,09,01,16,39,24.30
2013,09,01,16,40,24.20
2013,09,01,16,41,24.20
2013,09,01,16,42,24.30
2013,09,01,16,43,24.30
2013,09,01,16,44,24.20
2013,09,01,16,45,24.20
2013,09,01,16,46,24.10
2013,09,01,16,47,24.10
2013,09,01,16,48,24.10
2013,09,01,16,49,24.20
2013,09,01,16,50,24.20
2013,09,01,16,51,24.20
2013,09,01,16,52,24.20
2013,09,01,16,53,24.20
2013,09,01,16,54,24.20
2013,09,01,16,55,24.20
2013,09,01,16,56,24.20
2013,09,01,16,57,24.10
2013,09,01,16,58,24.10
2013,09,01,16,59,24.10
2013,09,01,17,00,24.20
2013,09,01,17,01,24.20
2013,09,01,17,02,24.20
2013,09,01,17,03,24.20
2013,09,01,17,04,24.20
2013,09,01,17,05,24.20
2013,09,01,17,06,24.20
2013,09,01,17,07,24.20
2013,09,01,17,08,24.30
2013,09,01,17,09,24.30
2013,09,01,17,10,24.30
2013,09,01,17,11,24.30
2013,09,01,17,12,24.40
2013,09,01,17,13,24.40
2013,09,01,17,14,24.40
2013,09,01,17,15,24.40
2013,09,01,17,16,24.50
2013,09,01,17,17,24.50
2013,09,01,17,18,24.60
2013,09,01,17,19,24.60